PY5TG-13 Weather Reports


Display with metric or nautical units.
time (UTC)temp
F
wind
direction
speed
MPH
gust
MPH
rain 1hr
in
rain 24hr
in
rain mn
in
humidity
%
barometer
mb
20260508053112 67 315 3.0 6.0 0.00 0.00 0.00 78 1009.3
20260508053008 67 315 3.0 13.0 0.00 0.00 0.00 78 1009.4
20260508052012 67 315 4.0 8.0 0.00 0.00 0.00 78 1009.2
20260508051012 67 315 3.0 8.0 0.00 0.00 0.00 78 1009.1
20260508050016 67 315 4.0 9.0 0.00 0.00 0.00 78 1009.2
20260508045014 67 315 3.0 8.0 0.00 0.00 0.00 77 1008.8
20260508044112 67 315 1.0 4.0 0.00 0.00 0.00 77 1008.9
20260508043014 68 315 3.0 6.0 0.00 0.00 0.00 77 1008.7
20260508042013 68 315 4.0 11.0 0.00 0.00 0.00 76 1008.6
20260508041013 68 315 3.0 11.0 0.00 0.00 0.00 76 1008.7
20260508040013 67 315 2.0 8.0 0.00 0.00 0.00 78 1008.8
20260508035013 68 315 2.0 6.0 0.00 0.00 0.00 77 1008.7
20260508034112 68 315 6.0 11.0 0.00 0.00 0.00 76 1008.5
20260508034008 68 315 3.0 9.0 0.00 0.00 0.00 76 1008.6
20260508033012 68 315 3.0 8.0 0.00 0.00 0.00 77 1008.9
20260508032013 68 315 3.0 13.0 0.00 0.00 0.00 77 1009.2
20260508031112 68 315 2.0 5.0 0.00 0.00 0.00 76 1009.1
20260508031008 68 315 3.0 9.0 0.00 0.00 0.00 76 1009.1
20260508030012 68 315 3.0 11.0 0.00 0.00 0.00 76 1009.1
20260508025013 68 315 3.0 12.0 0.00 0.00 0.00 76 1009.0
20260508024012 68 315 3.0 8.0 0.00 0.00 0.00 76 1009.1
20260508023013 68 315 2.0 8.0 0.00 0.00 0.00 77 1009.2
20260508022014 68 315 3.0 9.0 0.00 0.00 0.00 76 1009.2
20260508021113 69 315 2.0 4.0 0.00 0.00 0.00 76 1009.4
20260508021007 69 315 3.0 8.0 0.00 0.00 0.00 76 1009.4
20260508020114 69 315 3.0 6.0 0.00 0.00 0.00 75 1009.2
20260508020009 69 315 3.0 12.0 0.00 0.00 0.00 76 1009.3
20260508014012 68 315 2.0 8.0 0.00 0.00 0.00 76 1009.6
20260508013112 68 315 3.0 8.0 0.00 0.00 0.00 76 1009.8
20260508013008 68 315 3.0 9.0 0.00 0.00 0.00 76 1009.7
20260508012012 69 315 3.0 8.0 0.00 0.00 0.00 75 1009.5
20260508010013 68 315 3.0 8.0 0.00 0.00 0.00 76 1009.6
20260508005014 68 315 3.0 8.0 0.00 0.00 0.00 76 1009.7
20260508004012 68 315 3.0 11.0 0.00 0.00 0.00 77 1009.7
20260508003112 68 315 1.0 4.0 0.00 0.00 0.00 78 1010.0
20260508003007 68 315 1.0 6.0 0.00 0.00 0.00 78 1010.1
20260508002012 68 315 2.0 5.0 0.00 0.00 0.00 77 1009.9
20260508001012 68 315 2.0 6.0 0.00 0.00 0.00 77 1009.6
20260508000112 69 315 3.0 6.0 0.00 0.00 0.00 76 1009.3
20260508000008 69 315 3.0 8.0 0.00 0.00 0.00 76 1009.3
20260507235012 69 315 2.0 6.0 0.00 0.00 0.00 76 1009.3
20260507234012 69 315 2.0 8.0 0.00 0.00 0.00 76 1009.3
20260507233012 69 315 3.0 8.0 0.00 0.00 0.00 77 1009.4
20260507232013 69 315 2.0 6.0 0.00 0.00 0.00 77 1009.2
20260507231013 69 315 2.0 6.0 0.00 0.00 0.00 77 1009.3
20260507230013 69 315 2.0 6.0 0.00 0.00 0.00 76 1009.1
20260507225013 69 315 2.0 6.0 0.00 0.00 0.00 77 1009.2
20260507224013 69 315 3.0 15.0 0.00 0.00 0.00 76 1009.1
20260507223013 69 315 2.0 8.0 0.00 0.00 0.00 76 1009.1
20260507222014 69 315 1.0 5.0 0.00 0.00 0.00 77 1009.4
20260507221013 69 315 2.0 6.0 0.00 0.00 0.00 76 1009.1
20260507220112 69 315 2.0 4.0 0.00 0.00 0.00 75 1008.8
20260507220007 70 315 2.0 6.0 0.00 0.00 0.00 75 1008.7
20260507215012 70 315 2.0 5.0 0.00 0.00 0.00 74 1008.7
20260507214012 70 315 2.0 6.0 0.00 0.00 0.00 73 1008.6
20260507213007 70 315 3.0 6.0 0.00 0.00 0.00 75 1008.7
20260507212012 70 315 2.0 9.0 0.00 0.00 0.00 75 1008.7
20260507211012 69 315 2.0 6.0 0.00 0.00 0.00 75 1008.9
20260507210013 70 315 2.0 5.0 0.00 0.00 0.00 76 1008.8
20260507205013 70 315 1.0 4.0 0.00 0.00 0.00 75 1008.7
20260507204012 71 315 2.0 6.0 0.00 0.00 0.00 72 1008.6
20260507203013 71 315 2.0 8.0 0.00 0.00 0.00 72 1008.5
20260507202112 71 315 2.0 4.0 0.00 0.00 0.00 72 1008.5
20260507202007 72 315 2.0 5.0 0.00 0.00 0.00 72 1008.4
20260507201112 72 315 2.0 4.0 0.00 0.00 0.00 71 1008.2
20260507201007 72 315 1.0 5.0 0.00 0.00 0.00 70 1008.2
20260507200012 73 315 1.0 6.0 0.00 0.00 0.00 69 1008.1
20260507195112 73 315 1.0 2.0 0.00 0.00 0.00 68 1008.2
20260507195007 74 315 2.0 6.0 0.00 0.00 0.00 67 1008.2
20260507194113 75 315 1.0 2.0 0.00 0.00 0.00 65 1007.9
20260507194007 75 315 1.0 6.0 0.00 0.00 0.00 65 1007.9
20260507193012 76 315 3.0 9.0 0.00 0.00 0.00 64 1007.9
20260507192013 76 315 3.0 9.0 0.00 0.00 0.00 64 1007.7
20260507191013 76 315 3.0 11.0 0.00 0.00 0.00 64 1007.6
20260507190111 76 315 7.0 12.0 0.00 0.00 0.00 65 1007.8
20260507190007 76 315 4.0 12.0 0.00 0.00 0.00 65 1007.8
20260507185013 77 315 5.0 12.0 0.00 0.00 0.00 67 1007.9
20260507184012 78 315 4.0 13.0 0.00 0.00 0.00 67 1007.7
20260507183014 76 315 3.0 9.0 0.00 0.00 0.00 67 1007.9
20260507182115 75 315 5.0 8.0 0.00 0.00 0.00 69 1008.1
20260507182007 75 315 3.0 12.0 0.00 0.00 0.00 70 1008.3
20260507181011 74 315 3.0 12.0 0.00 0.00 0.00 70 1008.5
20260507180112 75 315 4.0 13.0 0.00 0.00 0.00 67 1008.6
20260507180007 75 315 3.0 13.0 0.00 0.00 0.00 68 1008.6
20260507175012 75 315 3.0 8.0 0.00 0.00 0.00 69 1008.8
20260507174011 76 315 4.0 19.0 0.00 0.00 0.00 66 1008.5
20260507173013 77 315 6.0 17.0 0.00 0.00 0.00 63 1008.3
20260507172111 77 315 7.0 17.0 0.00 0.00 0.00 64 1008.6
20260507172007 77 315 6.0 19.0 0.00 0.00 0.00 63 1008.7
20260507171014 77 315 5.0 13.0 0.00 0.00 0.00 63 1008.6
20260507170111 77 315 6.0 11.0 0.00 0.00 0.00 63 1008.9
20260507170007 77 315 5.0 12.0 0.00 0.00 0.00 62 1008.8
20260507165011 76 315 5.0 13.0 0.00 0.00 0.00 64 1009.1
20260507164012 78 315 4.0 9.0 0.00 0.00 0.00 62 1008.7
20260507163014 78 315 3.0 11.0 0.00 0.00 0.00 65 1009.1
20260507162013 77 315 4.0 11.0 0.00 0.00 0.00 64 1009.4
20260507161012 77 315 6.0 13.0 0.00 0.00 0.00 62 1009.9
20260507160014 78 315 4.0 12.0 0.00 0.00 0.00 61 1009.7
20260507155013 77 270 4.0 17.0 0.00 0.00 0.00 65 1010.0
20260507154013 76 315 6.0 17.0 0.00 0.00 0.00 66 1010.4
20260507153357 76 315 7.0 15.0 0.00 0.00 0.00 64 1010.7
20260507153014 76 315 6.0 15.0 0.00 0.00 0.00 66 1010.7
20260507152013 76 315 5.0 19.0 0.00 0.00 0.00 65 1010.9
20260507151011 76 315 4.0 15.0 0.00 0.00 0.00 65 1010.9
20260507150013 76 315 4.0 13.0 0.00 0.00 0.00 65 1011.3
20260507145012 75 315 5.0 12.0 0.00 0.00 0.00 67 1011.4
20260507144111 75 315 7.0 13.0 0.00 0.00 0.00 64 1011.7
20260507144007 75 270 6.0 17.0 0.00 0.00 0.00 65 1011.5
20260507143011 75 315 5.0 15.0 0.00 0.00 0.00 65 1011.5
20260507142013 76 315 4.0 13.0 0.00 0.00 0.00 66 1011.5
20260507141118 75 315 5.0 11.0 0.00 0.00 0.00 66 1011.6
20260507141007 75 315 5.0 17.0 0.00 0.00 0.00 67 1011.7
20260507140113 74 315 4.0 6.0 0.00 0.00 0.00 68 1011.9
20260507140007 74 315 5.0 13.0 0.00 0.00 0.00 68 1011.9
20260507134011 74 315 5.0 13.0 0.00 0.00 0.00 69 1012.3
20260507133012 73 315 4.0 13.0 0.00 0.00 0.00 68 1012.2
20260507132111 74 315 6.0 9.0 0.00 0.00 0.00 69 1011.9
20260507132007 73 315 5.0 15.0 0.00 0.00 0.00 69 1012.2
20260507131012 73 315 5.0 15.0 0.00 0.00 0.00 67 1012.4
20260507130111 73 315 4.0 9.0 0.00 0.00 0.00 72 1012.7
20260507130007 72 315 5.0 11.0 0.00 0.00 0.00 72 1012.8
20260507125011 71 315 5.0 9.0 0.00 0.00 0.00 76 1013.1
20260507124011 70 315 6.0 13.0 0.00 0.00 0.00 75 1013.1
20260507123012 71 315 4.0 11.0 0.00 0.00 0.00 75 1013.1
20260507122013 72 315 5.0 12.0 0.00 0.00 0.00 76 1013.1
20260507121012 71 315 4.0 11.0 0.00 0.00 0.00 75 1013.2
20260507120112 71 315 5.0 9.0 0.00 0.00 0.00 75 1013.1
20260507120007 71 315 5.0 9.0 0.00 0.00 0.00 75 1013.2
20260507115011 71 315 4.0 13.0 0.00 0.00 0.00 74 1013.2
20260507114011 71 315 3.0 11.0 0.00 0.00 0.00 77 1013.3
20260507113111 71 315 4.0 6.0 0.00 0.00 0.00 75 1013.4
20260507113007 71 315 2.0 5.0 0.00 0.00 0.00 77 1013.4
20260507112011 69 315 1.0 5.0 0.00 0.00 0.00 83 1013.8
20260507111011 66 315 0.0 2.0 0.00 0.00 0.00 96 1014.2
20260507110111 63 315 0.0 1.0 0.00 0.00 0.00 98 1014.6
20260507110007 62 315 0.0 2.0 0.00 0.00 0.00 98 1014.8
20260507105011 60 315 0.0 2.0 0.00 0.00 0.00 98 1015.0
20260507104012 58 315 0.0 1.0 0.00 0.00 0.00 98 1015.1
20260507103111 56 180 0.0 0.0 0.00 0.00 0.00 98 1015.6
20260507103007 56 180 0.0 2.0 0.00 0.00 0.00 98 1015.5
20260507102011 56 180 0.0 2.0 0.00 0.00 0.00 98 1015.5
20260507101011 56 180 0.0 1.0 0.00 0.00 0.00 98 1015.6
20260507100111 56 180 0.0 1.0 0.00 0.00 0.00 98 1015.5
20260507100007 56 180 0.0 2.0 0.00 0.00 0.00 98 1015.5
20260507094011 56 180 0.0 2.0 0.00 0.00 0.00 98 1015.5
20260507093012 55 180 0.0 2.0 0.00 0.00 0.00 98 1015.5
20260507092013 56 225 0.0 2.0 0.00 0.00 0.00 98 1015.4
20260507091008 55 225 0.0 2.0 0.00 0.00 0.00 98 1015.5
20260507090011 55 270 0.0 2.0 0.00 0.00 0.00 98 1015.3
20260507085012 55 270 0.0 2.0 0.00 0.00 0.00 98 1015.3
20260507084111 56 270 1.0 2.0 0.00 0.00 0.00 98 1015.0
20260507084007 56 270 0.0 2.0 0.00 0.00 0.00 98 1015.0
20260507083011 55 270 0.0 2.0 0.00 0.00 0.00 98 1015.2
20260507082012 55 270 0.0 1.0 0.00 0.00 0.00 98 1015.3
20260507081111 55 270 0.0 1.0 0.00 0.00 0.00 98 1015.4
20260507081007 55 270 0.0 2.0 0.00 0.00 0.00 98 1015.4
20260507080011 55 270 0.0 1.0 0.00 0.00 0.00 98 1015.4
20260507075012 55 270 0.0 2.0 0.00 0.00 0.00 98 1015.5
20260507074111 56 270 0.0 1.0 0.00 0.00 0.00 98 1015.5
20260507074007 55 270 0.0 2.0 0.00 0.00 0.00 98 1015.6
20260507073012 55 270 0.0 1.0 0.00 0.00 0.00 98 1015.5
20260507072012 56 270 0.0 1.0 0.00 0.00 0.00 98 1015.8
20260507071012 55 270 0.0 0.0 0.00 0.00 0.00 98 1016.0
20260507070505 56 270 0.0 1.0 0.00 0.00 0.00 98 1016.0
20260507070111 56 270 0.0 0.0 0.00 0.00 0.00 98 1016.0
20260507070010 56 270 0.0 1.0 0.00 0.00 0.00 98 1015.9
20260507065012 56 270 0.0 2.0 0.00 0.00 0.00 98 1016.0
20260507064012 56 180 0.0 2.0 0.00 0.00 0.00 98 1016.0
20260507063112 56 315 0.0 0.0 0.00 0.00 0.00 98 1016.1
20260507063007 56 315 0.0 1.0 0.00 0.00 0.00 98 1016.1
20260507061011 57 270 0.0 1.0 0.00 0.00 0.00 98 1016.2
20260507060111 57 270 0.0 0.0 0.00 0.00 0.00 98 1016.3
20260507060007 57 270 0.0 4.0 0.00 0.00 0.00 98 1016.3
20260507055011 57 270 0.0 0.0 0.00 0.00 0.00 98 1016.4